MARIO (55123 NORAD) Tracking and Keplerian Element Data

This shows tracking and keplerian element data for the satellite.

Feedback or suggestion? Click here.




ElementValue
Catalog55123
NameMARIO
Epoch Orbit237
Epoch Day13.29399809
Epoch Year2023
RAAN15.6257
Inclination51.6421
Eccentricity0.0002155
Argument of Perigee322.8736
Mean Anonmoly37.2105
Mean Motion15.52336112
Decay Rate0.00079871
L11 55123U 98067UQ 23013.29399809 .00079871 00000+0 12821-2 0 9991
L22 55123 51.6421 15.6257 0002155 322.8736 37.2105 15.52336112 2376



Live tracking and technical data element details for MARIO (NORAD 55123). MARIO can be tracked NOW for your location showing map with azimuth and elevation plus other details from your city location.







IsCatalogInMostPopularTable: catalog: 55123, numindb: 3
Update: records affected: 1



GetName: 55123 MARIO

Hit Count: updated at: Tue, 07 Feb 2023 14:41:44 GMT